Tracking 20241 objects as of 25-Jan-2020
HD Live streaming from Space Station
objects crossing your sky now

FLOCK 4P 5

Track FLOCK 4P 5 now!
10-day predictions
FLOCK 4P 5 is classified as:


NORAD ID: 44818
Int'l Code: 2019-081Q
Perigee: 505.3 km
Apogee: 521.8 km
Inclination: 97.5 °
Period: 94.7 minutes
Semi major axis: 6884 km
RCS: Unknown
Launch date: November 27, 2019
Source: United States (US)
Launch site: SRIHARIKOTA (SRI)
aabbcc
Your satellite tracking list
Your tracking list is empty




NASA's NSSDC Master Catalog

Two Line Element Set (TLE):
1 44818U 19081Q   20024.80291495  .00000509  00000-0  26977-4 0  9999
2 44818  97.5163  86.6403 0011974  43.8088 316.4094 15.19824651  8904
Source of the keplerian elements: AFSPC